Year,Month,Day,Hour,Minute,Value (Times are PST for temperature in C)
2016,05,30,00,00,12.30
2016,05,30,00,01,12.30
2016,05,30,00,02,12.30
2016,05,30,00,03,12.20
2016,05,30,00,04,12.20
2016,05,30,00,05,12.20
2016,05,30,00,06,12.20
2016,05,30,00,07,12.20
2016,05,30,00,08,12.20
2016,05,30,00,09,12.20
2016,05,30,00,10,12.20
2016,05,30,00,11,12.10
2016,05,30,00,12,12.10
2016,05,30,00,13,12.10
2016,05,30,00,14,12.10
2016,05,30,00,15,12.10
2016,05,30,00,16,12.10
2016,05,30,00,17,12.10
2016,05,30,00,18,12.10
2016,05,30,00,19,12.10
2016,05,30,00,20,12.10
2016,05,30,00,21,12.10
2016,05,30,00,22,12.10
2016,05,30,00,23,12.10
2016,05,30,00,24,12.10
2016,05,30,00,25,12.10
2016,05,30,00,26,12.10
2016,05,30,00,27,12.10
2016,05,30,00,28,12.10
2016,05,30,00,29,12.10
2016,05,30,00,30,12.10
2016,05,30,00,31,12.10
2016,05,30,00,32,12.10
2016,05,30,00,33,12.10
2016,05,30,00,34,12.10
2016,05,30,00,35,12.10
2016,05,30,00,36,12.10
2016,05,30,00,37,12.10
2016,05,30,00,38,12.10
2016,05,30,00,39,12.10
2016,05,30,00,40,12.10
2016,05,30,00,41,12.10
2016,05,30,00,42,12.10
2016,05,30,00,43,12.10
2016,05,30,00,44,12.10
2016,05,30,00,45,12.10
2016,05,30,00,46,12.10
2016,05,30,00,47,12.10
2016,05,30,00,48,12.10
2016,05,30,00,49,12.10
2016,05,30,00,50,12.10
2016,05,30,00,51,12.10
2016,05,30,00,52,12.10
2016,05,30,00,53,12.10
2016,05,30,00,54,12.10
2016,05,30,00,55,12.10
2016,05,30,00,56,12.10
2016,05,30,00,57,12.10
2016,05,30,00,58,12.10
2016,05,30,00,59,12.10
2016,05,30,01,00,12.10
2016,05,30,01,01,12.10
2016,05,30,01,02,12.10
2016,05,30,01,03,12.10
2016,05,30,01,04,12.10
2016,05,30,01,05,12.00
2016,05,30,01,06,12.00
2016,05,30,01,07,12.00
2016,05,30,01,08,12.00
2016,05,30,01,09,12.00
2016,05,30,01,10,12.00
2016,05,30,01,11,11.90
2016,05,30,01,12,11.90
2016,05,30,01,13,11.90
2016,05,30,01,14,11.90
2016,05,30,01,15,11.80
2016,05,30,01,16,11.80
2016,05,30,01,17,11.80
2016,05,30,01,18,11.80
2016,05,30,01,19,11.80
2016,05,30,01,20,11.80
2016,05,30,01,21,11.80
2016,05,30,01,22,11.70
2016,05,30,01,23,11.70
2016,05,30,01,24,11.70
2016,05,30,01,25,11.70
2016,05,30,01,26,11.60
2016,05,30,01,27,11.60
2016,05,30,01,28,11.60
2016,05,30,01,29,11.60
2016,05,30,01,30,11.60
2016,05,30,01,31,11.60
2016,05,30,01,32,11.60
2016,05,30,01,33,11.60
2016,05,30,01,34,11.60
2016,05,30,01,35,11.50
2016,05,30,01,36,11.50
2016,05,30,01,37,11.50
2016,05,30,01,38,11.50
2016,05,30,01,39,11.50
2016,05,30,01,40,11.40
2016,05,30,01,41,11.40
2016,05,30,01,42,11.40
2016,05,30,01,43,11.40
2016,05,30,01,44,11.30
2016,05,30,01,45,11.30
2016,05,30,01,46,11.30
2016,05,30,01,47,11.30
2016,05,30,01,48,11.30
2016,05,30,01,49,11.20
2016,05,30,01,50,11.20
2016,05,30,01,51,11.20
2016,05,30,01,52,11.10
2016,05,30,01,53,11.10
2016,05,30,01,54,11.10
2016,05,30,01,55,11.00
2016,05,30,01,56,11.00
2016,05,30,01,57,10.90
2016,05,30,01,58,10.90
2016,05,30,01,59,10.90
2016,05,30,02,00,10.80
2016,05,30,02,01,10.80
2016,05,30,02,02,10.80
2016,05,30,02,03,10.80
2016,05,30,02,04,10.70
2016,05,30,02,05,10.70
2016,05,30,02,06,10.70
2016,05,30,02,07,10.70
2016,05,30,02,08,10.60
2016,05,30,02,09,10.60
2016,05,30,02,10,10.60
2016,05,30,02,11,10.50
2016,05,30,02,12,10.40
2016,05,30,02,13,10.30
2016,05,30,02,14,10.30
2016,05,30,02,15,10.30
2016,05,30,02,16,10.20
2016,05,30,02,17,10.10
2016,05,30,02,18,10.10
2016,05,30,02,19,10.00
2016,05,30,02,20,9.90
2016,05,30,02,21,9.80
2016,05,30,02,22,9.80
2016,05,30,02,23,9.70
2016,05,30,02,24,9.70
2016,05,30,02,25,9.70
2016,05,30,02,26,9.60
2016,05,30,02,27,9.60
2016,05,30,02,28,9.50
2016,05,30,02,29,9.50
2016,05,30,02,30,9.40
2016,05,30,02,31,9.40
2016,05,30,02,32,9.40
2016,05,30,02,33,9.40
2016,05,30,02,34,9.40
2016,05,30,02,35,9.40
2016,05,30,02,36,9.30
2016,05,30,02,37,9.30
2016,05,30,02,38,9.30
2016,05,30,02,39,9.30
2016,05,30,02,40,9.30
2016,05,30,02,41,9.30
2016,05,30,02,42,9.30
2016,05,30,02,43,9.30
2016,05,30,02,44,9.40
2016,05,30,02,45,9.40
2016,05,30,02,46,9.40
2016,05,30,02,47,9.50
2016,05,30,02,48,9.50
2016,05,30,02,49,9.60
2016,05,30,02,50,9.60
2016,05,30,02,51,9.60
2016,05,30,02,52,9.70
2016,05,30,02,53,9.70
2016,05,30,02,54,9.70
2016,05,30,02,55,9.70
2016,05,30,02,56,9.70
2016,05,30,02,57,9.70
2016,05,30,02,58,9.70
2016,05,30,02,59,9.70
2016,05,30,03,00,9.70
2016,05,30,03,01,9.70
2016,05,30,03,02,9.70
2016,05,30,03,03,9.70
2016,05,30,03,04,9.70
2016,05,30,03,05,9.70
2016,05,30,03,06,9.60
2016,05,30,03,07,9.60
2016,05,30,03,08,9.60
2016,05,30,03,09,9.50
2016,05,30,03,10,9.50
2016,05,30,03,11,9.50
2016,05,30,03,12,9.40
2016,05,30,03,13,9.40
2016,05,30,03,14,9.40
2016,05,30,03,15,9.40
2016,05,30,03,16,9.40
2016,05,30,03,17,9.40
2016,05,30,03,18,9.30
2016,05,30,03,19,9.30
2016,05,30,03,20,9.30
2016,05,30,03,21,9.20
2016,05,30,03,22,9.20
2016,05,30,03,23,9.10
2016,05,30,03,24,9.10
2016,05,30,03,25,9.10
2016,05,30,03,26,9.00
2016,05,30,03,27,9.00
2016,05,30,03,28,8.90
2016,05,30,03,29,8.90
2016,05,30,03,30,8.80
2016,05,30,03,31,8.80
2016,05,30,03,32,8.70
2016,05,30,03,33,8.60
2016,05,30,03,34,8.60
2016,05,30,03,35,8.50
2016,05,30,03,36,8.40
2016,05,30,03,37,8.30
2016,05,30,03,38,8.30
2016,05,30,03,39,8.30
2016,05,30,03,40,8.20
2016,05,30,03,41,8.20
2016,05,30,03,42,8.20
2016,05,30,03,43,8.10
2016,05,30,03,44,8.10
2016,05,30,03,45,8.00
2016,05,30,03,46,8.00
2016,05,30,03,47,8.00
2016,05,30,03,48,8.00
2016,05,30,03,49,8.00
2016,05,30,03,50,8.00
2016,05,30,03,51,8.00
2016,05,30,03,52,8.00
2016,05,30,03,53,8.10
2016,05,30,03,54,8.10
2016,05,30,03,55,8.10
2016,05,30,03,56,8.10
2016,05,30,03,57,8.10
2016,05,30,03,58,8.10
2016,05,30,03,59,8.20
2016,05,30,04,00,8.10
2016,05,30,04,01,8.10
2016,05,30,04,02,8.10
2016,05,30,04,03,8.10
2016,05,30,04,04,8.10
2016,05,30,04,05,8.10
2016,05,30,04,06,8.10
2016,05,30,04,07,8.10
2016,05,30,04,08,8.00
2016,05,30,04,09,8.00
2016,05,30,04,10,8.00
2016,05,30,04,11,8.00
2016,05,30,04,12,8.00
2016,05,30,04,13,7.90
2016,05,30,04,14,7.90
2016,05,30,04,15,7.90
2016,05,30,04,16,7.90
2016,05,30,04,17,7.90
2016,05,30,04,18,7.90
2016,05,30,04,19,7.80
2016,05,30,04,20,7.80
2016,05,30,04,21,7.80
2016,05,30,04,22,7.80
2016,05,30,04,23,7.80
2016,05,30,04,24,7.80
2016,05,30,04,25,7.80
2016,05,30,04,26,7.80
2016,05,30,04,27,7.80
2016,05,30,04,28,7.80
2016,05,30,04,29,7.80
2016,05,30,04,30,7.80
2016,05,30,04,31,7.80
2016,05,30,04,32,7.80
2016,05,30,04,33,7.70
2016,05,30,04,34,7.70
2016,05,30,04,35,7.70
2016,05,30,04,36,7.70
2016,05,30,04,37,7.70
2016,05,30,04,38,7.70
2016,05,30,04,39,7.70
2016,05,30,04,40,7.70
2016,05,30,04,41,7.70
2016,05,30,04,42,7.70
2016,05,30,04,43,7.70
2016,05,30,04,44,7.60
2016,05,30,04,45,7.60
2016,05,30,04,46,7.60
2016,05,30,04,47,7.60
2016,05,30,04,48,7.60
2016,05,30,04,49,7.60
2016,05,30,04,50,7.60
2016,05,30,04,51,7.60
2016,05,30,04,52,7.60
2016,05,30,04,53,7.50
2016,05,30,04,54,7.50
2016,05,30,04,55,7.50
2016,05,30,04,56,7.50
2016,05,30,04,57,7.40
2016,05,30,04,58,7.40
2016,05,30,04,59,7.40
2016,05,30,05,00,7.40
2016,05,30,05,01,7.40
2016,05,30,05,02,7.40
2016,05,30,05,03,7.40
2016,05,30,05,04,7.40
2016,05,30,05,05,7.40
2016,05,30,05,06,7.40
2016,05,30,05,07,7.40
2016,05,30,05,08,7.40
2016,05,30,05,09,7.40
2016,05,30,05,10,7.40
2016,05,30,05,11,7.40
2016,05,30,05,12,7.40
2016,05,30,05,13,7.40
2016,05,30,05,14,7.40
2016,05,30,05,15,7.40
2016,05,30,05,16,7.40
2016,05,30,05,17,7.40
2016,05,30,05,18,7.40
2016,05,30,05,19,7.40
2016,05,30,05,20,7.30
2016,05,30,05,21,7.30
2016,05,30,05,22,7.30
2016,05,30,05,23,7.40
2016,05,30,05,24,7.30
2016,05,30,05,25,7.30
2016,05,30,05,26,7.40
2016,05,30,05,27,7.30
2016,05,30,05,28,7.30
2016,05,30,05,29,7.30
2016,05,30,05,30,7.30
2016,05,30,05,31,7.30
2016,05,30,05,32,7.30
2016,05,30,05,33,7.30
2016,05,30,05,34,7.30
2016,05,30,05,35,7.30
2016,05,30,05,36,7.30
2016,05,30,05,37,7.30
2016,05,30,05,38,7.40
2016,05,30,05,39,7.40
2016,05,30,05,40,7.40
2016,05,30,05,41,7.40
2016,05,30,05,42,7.40
2016,05,30,05,43,7.40
2016,05,30,05,44,7.50
2016,05,30,05,45,7.50
2016,05,30,05,46,7.50
2016,05,30,05,47,7.50
2016,05,30,05,48,7.50
2016,05,30,05,49,7.50
2016,05,30,05,50,7.50
2016,05,30,05,51,7.50
2016,05,30,05,52,7.50
2016,05,30,05,53,7.50
2016,05,30,05,54,7.50
2016,05,30,05,55,7.60
2016,05,30,05,56,7.60
2016,05,30,05,57,7.60
2016,05,30,05,58,7.70
2016,05,30,05,59,7.70
2016,05,30,06,00,7.70
2016,05,30,06,01,7.80
2016,05,30,06,02,7.90
2016,05,30,06,03,7.90
2016,05,30,06,04,8.00
2016,05,30,06,05,8.10
2016,05,30,06,06,8.10
2016,05,30,06,07,8.20
2016,05,30,06,08,8.30
2016,05,30,06,09,8.30
2016,05,30,06,10,8.40
2016,05,30,06,11,8.50
2016,05,30,06,12,8.50
2016,05,30,06,13,8.60
2016,05,30,06,14,8.70
2016,05,30,06,15,8.70
2016,05,30,06,16,8.70
2016,05,30,06,17,8.70
2016,05,30,06,18,8.80
2016,05,30,06,19,8.80
2016,05,30,06,20,8.80
2016,05,30,06,21,8.90
2016,05,30,06,22,8.90
2016,05,30,06,23,8.90
2016,05,30,06,24,9.00
2016,05,30,06,25,9.00
2016,05,30,06,26,9.00
2016,05,30,06,27,9.10
2016,05,30,06,28,9.10
2016,05,30,06,29,9.10
2016,05,30,06,30,9.20
2016,05,30,06,31,9.20
2016,05,30,06,32,9.20
2016,05,30,06,33,9.30
2016,05,30,06,34,9.30
2016,05,30,06,35,9.30
2016,05,30,06,36,9.30
2016,05,30,06,37,9.40
2016,05,30,06,38,9.50
2016,05,30,06,39,9.50
2016,05,30,06,40,9.60
2016,05,30,06,41,9.60
2016,05,30,06,42,9.70
2016,05,30,06,43,9.70
2016,05,30,06,44,9.80
2016,05,30,06,45,9.80
2016,05,30,06,46,9.80
2016,05,30,06,47,9.90
2016,05,30,06,48,9.90
2016,05,30,06,49,9.90
2016,05,30,06,50,10.00
2016,05,30,06,51,10.00
2016,05,30,06,52,10.10
2016,05,30,06,53,10.10
2016,05,30,06,54,10.10
2016,05,30,06,55,10.10
2016,05,30,06,56,10.10
2016,05,30,06,57,10.10
2016,05,30,06,58,10.20
2016,05,30,06,59,10.20
2016,05,30,07,00,10.20
2016,05,30,07,01,10.20
2016,05,30,07,02,10.30
2016,05,30,07,03,10.30
2016,05,30,07,04,10.30
2016,05,30,07,05,10.30
2016,05,30,07,06,10.40
2016,05,30,07,07,10.40
2016,05,30,07,08,10.40
2016,05,30,07,09,10.40
2016,05,30,07,10,10.50
2016,05,30,07,11,10.60
2016,05,30,07,12,10.60
2016,05,30,07,13,10.60
2016,05,30,07,14,10.60
2016,05,30,07,15,10.60
2016,05,30,07,16,10.70
2016,05,30,07,17,10.70
2016,05,30,07,18,10.70
2016,05,30,07,19,10.70
2016,05,30,07,20,10.80
2016,05,30,07,21,10.80
2016,05,30,07,22,10.80
2016,05,30,07,23,10.90
2016,05,30,07,24,10.90
2016,05,30,07,25,11.00
2016,05,30,07,26,11.00
2016,05,30,07,27,11.10
2016,05,30,07,28,11.20
2016,05,30,07,29,11.20
2016,05,30,07,30,11.30
2016,05,30,07,31,11.40
2016,05,30,07,32,11.40
2016,05,30,07,33,11.50
2016,05,30,07,34,11.60
2016,05,30,07,35,11.60
2016,05,30,07,36,11.60
2016,05,30,07,37,11.60
2016,05,30,07,38,11.60
2016,05,30,07,39,11.60
2016,05,30,07,40,11.70
2016,05,30,07,41,11.70
2016,05,30,07,42,11.70
2016,05,30,07,43,11.70
2016,05,30,07,44,11.70
2016,05,30,07,45,11.80
2016,05,30,07,46,11.80
2016,05,30,07,47,11.80
2016,05,30,07,48,11.80
2016,05,30,07,49,11.80
2016,05,30,07,50,11.90
2016,05,30,07,51,11.90
2016,05,30,07,52,12.00
2016,05,30,07,53,12.00
2016,05,30,07,54,12.00
2016,05,30,07,55,12.10
2016,05,30,07,56,12.20
2016,05,30,07,57,12.20
2016,05,30,07,58,12.30
2016,05,30,07,59,12.30
2016,05,30,08,00,12.40
2016,05,30,08,01,12.40
2016,05,30,08,02,12.40
2016,05,30,08,03,12.50
2016,05,30,08,04,12.50
2016,05,30,08,05,12.50
2016,05,30,08,06,12.60
2016,05,30,08,07,12.60
2016,05,30,08,08,12.60
2016,05,30,08,09,12.60
2016,05,30,08,10,12.70
2016,05,30,08,11,12.70
2016,05,30,08,12,12.70
2016,05,30,08,13,12.70
2016,05,30,08,14,12.80
2016,05,30,08,15,12.80
2016,05,30,08,16,12.80
2016,05,30,08,17,12.90
2016,05,30,08,18,12.90
2016,05,30,08,19,12.90
2016,05,30,08,20,13.00
2016,05,30,08,21,13.00
2016,05,30,08,22,13.00
2016,05,30,08,23,13.10
2016,05,30,08,24,13.10
2016,05,30,08,25,13.10
2016,05,30,08,26,13.10
2016,05,30,08,27,13.10
2016,05,30,08,28,13.10
2016,05,30,08,29,13.10
2016,05,30,08,30,13.10
2016,05,30,08,31,13.10
2016,05,30,08,32,13.10
2016,05,30,08,33,13.10
2016,05,30,08,34,13.20
2016,05,30,08,35,13.20
2016,05,30,08,36,13.20
2016,05,30,08,37,13.20
2016,05,30,08,38,13.30
2016,05,30,08,39,13.30
2016,05,30,08,40,13.30
2016,05,30,08,41,13.40
2016,05,30,08,42,13.40
2016,05,30,08,43,13.40
2016,05,30,08,44,13.40
2016,05,30,08,45,13.40
2016,05,30,08,46,13.40
2016,05,30,08,47,13.40
2016,05,30,08,48,13.40
2016,05,30,08,49,13.40
2016,05,30,08,50,13.40
2016,05,30,08,51,13.40
2016,05,30,08,52,13.40
2016,05,30,08,53,13.40
2016,05,30,08,54,13.50
2016,05,30,08,55,13.60
2016,05,30,08,56,13.60
2016,05,30,08,57,13.60
2016,05,30,08,58,13.70
2016,05,30,08,59,13.70
2016,05,30,09,00,13.70
2016,05,30,09,01,13.70
2016,05,30,09,02,13.70
2016,05,30,09,03,13.70
2016,05,30,09,04,13.80
2016,05,30,09,05,13.80
2016,05,30,09,06,13.90
2016,05,30,09,07,14.00
2016,05,30,09,08,14.10
2016,05,30,09,09,14.10
2016,05,30,09,10,14.10
2016,05,30,09,11,14.10
2016,05,30,09,12,14.10
2016,05,30,09,13,14.10
2016,05,30,09,14,14.00
2016,05,30,09,15,14.00
2016,05,30,09,16,13.90
2016,05,30,09,17,13.90
2016,05,30,09,18,14.00
2016,05,30,09,19,14.00
2016,05,30,09,20,14.00
2016,05,30,09,21,14.00
2016,05,30,09,22,14.00
2016,05,30,09,23,14.10
2016,05,30,09,24,14.10
2016,05,30,09,25,14.20
2016,05,30,09,26,14.20
2016,05,30,09,27,14.20
2016,05,30,09,28,14.20
2016,05,30,09,29,14.20
2016,05,30,09,30,14.20
2016,05,30,09,31,14.20
2016,05,30,09,32,14.20
2016,05,30,09,33,14.20
2016,05,30,09,34,14.20
2016,05,30,09,35,14.20
2016,05,30,09,36,14.20
2016,05,30,09,37,14.20
2016,05,30,09,38,14.20
2016,05,30,09,39,14.20
2016,05,30,09,40,14.20
2016,05,30,12,30,18.80
2016,05,30,12,31,18.90
2016,05,30,12,32,18.90
2016,05,30,12,33,18.90
2016,05,30,12,34,19.00
2016,05,30,12,35,19.00
2016,05,30,12,36,19.00
2016,05,30,12,37,19.00
2016,05,30,12,38,19.00
2016,05,30,12,39,19.10
2016,05,30,12,40,19.10
2016,05,30,12,41,19.10
2016,05,30,12,42,19.20
2016,05,30,12,43,19.20
2016,05,30,12,44,19.30
2016,05,30,12,45,19.40
2016,05,30,12,46,19.50
2016,05,30,12,47,19.50
2016,05,30,12,48,19.60
2016,05,30,12,49,19.60
2016,05,30,12,50,19.60
2016,05,30,12,51,19.60
2016,05,30,12,52,19.60
2016,05,30,12,53,19.60
2016,05,30,12,54,19.70
2016,05,30,12,55,19.70
2016,05,30,12,56,19.70
2016,05,30,12,57,19.80
2016,05,30,12,58,20.00
2016,05,30,12,59,20.10
2016,05,30,13,00,20.10
2016,05,30,13,01,20.10
2016,05,30,13,02,20.10
2016,05,30,13,03,20.00
2016,05,30,13,04,20.00
2016,05,30,13,05,19.90
2016,05,30,13,06,19.90
2016,05,30,13,07,19.90
2016,05,30,13,08,19.90
2016,05,30,13,09,19.90
2016,05,30,13,10,19.80
2016,05,30,13,11,19.80
2016,05,30,13,12,19.80
2016,05,30,13,13,19.90
2016,05,30,13,14,19.90
2016,05,30,13,15,20.00
2016,05,30,13,16,20.10
2016,05,30,13,17,20.10
2016,05,30,13,18,20.10
2016,05,30,13,19,20.20
2016,05,30,13,20,20.20
2016,05,30,13,21,20.20
2016,05,30,13,22,20.20
2016,05,30,13,23,20.10
2016,05,30,13,24,20.10
2016,05,30,13,25,20.10
2016,05,30,13,26,20.00
2016,05,30,13,27,20.00
2016,05,30,13,28,19.90
2016,05,30,13,29,19.80
2016,05,30,13,30,19.80
2016,05,30,13,31,19.80
2016,05,30,13,32,19.90
2016,05,30,13,33,19.90
2016,05,30,13,34,20.00
2016,05,30,13,35,20.00
2016,05,30,13,36,20.00
2016,05,30,13,37,20.10
2016,05,30,13,38,20.10
2016,05,30,13,39,20.10
2016,05,30,13,40,20.10
2016,05,30,13,41,20.10
2016,05,30,13,42,20.10
2016,05,30,13,43,20.10
2016,05,30,13,44,20.10
2016,05,30,13,45,20.10
2016,05,30,13,46,20.10
2016,05,30,13,47,20.10
2016,05,30,13,48,20.10
2016,05,30,13,49,20.10
2016,05,30,13,50,20.10
2016,05,30,13,51,20.10
2016,05,30,13,52,20.10
2016,05,30,13,53,20.10
2016,05,30,17,00,21.10
2016,05,30,17,01,21.10
2016,05,30,17,02,21.10
2016,05,30,17,03,21.10
2016,05,30,17,04,21.10
2016,05,30,17,05,21.10
2016,05,30,17,06,21.10
2016,05,30,17,07,21.10
2016,05,30,17,08,21.20
2016,05,30,17,09,21.20
2016,05,30,17,10,21.30
2016,05,30,17,11,21.30
2016,05,30,17,12,21.40
2016,05,30,17,13,21.30
2016,05,30,17,14,21.30
2016,05,30,17,15,21.30
2016,05,30,17,16,21.30
2016,05,30,17,17,21.30
2016,05,30,17,18,21.40
2016,05,30,17,19,21.50
2016,05,30,17,20,21.60
2016,05,30,17,21,21.60
2016,05,30,17,22,21.60
2016,05,30,17,23,21.60
2016,05,30,17,24,21.60
2016,05,30,17,25,21.60
2016,05,30,17,26,21.50
2016,05,30,17,27,21.40
2016,05,30,17,28,21.40
2016,05,30,17,29,21.30
2016,05,30,17,30,21.30
2016,05,30,17,31,21.30
2016,05,30,17,32,21.30
2016,05,30,17,33,21.40
2016,05,30,17,34,21.40
2016,05,30,17,35,21.50
2016,05,30,17,36,21.60
2016,05,30,17,37,21.60
2016,05,30,17,38,21.70
2016,05,30,17,39,21.70
2016,05,30,17,40,21.70
2016,05,30,17,41,21.80
2016,05,30,17,42,21.80
2016,05,30,17,43,21.80
2016,05,30,17,44,21.80
2016,05,30,17,45,21.80
2016,05,30,17,46,21.80
2016,05,30,17,47,21.90
2016,05,30,17,48,21.90
2016,05,30,17,49,22.00
2016,05,30,17,50,22.00
2016,05,30,17,51,22.10
2016,05,30,17,52,22.10
2016,05,30,17,53,22.20
2016,05,30,17,54,22.20
2016,05,30,17,55,22.20
2016,05,30,17,56,22.30
2016,05,30,17,57,22.30
2016,05,30,17,58,22.30
2016,05,30,17,59,22.30
2016,05,30,18,00,22.30
2016,05,30,18,01,22.30
2016,05,30,18,02,22.30
2016,05,30,18,03,22.30
2016,05,30,18,04,22.30
2016,05,30,18,05,22.30
2016,05,30,18,06,22.30
2016,05,30,18,07,22.20
2016,05,30,18,08,22.20
2016,05,30,18,09,22.20
2016,05,30,18,10,22.20
2016,05,30,18,11,22.20
2016,05,30,18,12,22.20
2016,05,30,18,13,22.20
2016,05,30,18,14,22.10
2016,05,30,18,15,22.10
2016,05,30,18,16,22.00
2016,05,30,18,17,21.90
2016,05,30,18,18,21.90
2016,05,30,18,19,21.90
2016,05,30,18,20,21.90
2016,05,30,18,21,21.80
2016,05,30,18,22,21.90
2016,05,30,18,23,21.90
2016,05,30,18,24,21.90
2016,05,30,18,25,22.00
2016,05,30,18,26,22.00
2016,05,30,18,27,22.00
2016,05,30,18,28,21.90
2016,05,30,18,29,21.90
2016,05,30,18,30,21.90
2016,05,30,18,31,21.90
2016,05,30,18,32,21.90
2016,05,30,18,33,21.90
2016,05,30,18,34,21.80
2016,05,30,18,35,21.80
2016,05,30,18,36,21.80
2016,05,30,18,37,21.80
2016,05,30,18,38,21.80
2016,05,30,18,39,21.80
2016,05,30,18,40,21.70
2016,05,30,18,41,21.70
2016,05,30,18,42,21.70
2016,05,30,18,43,21.70
2016,05,30,18,44,21.70
2016,05,30,18,45,21.70
2016,05,30,18,46,21.70
2016,05,30,18,47,21.70
2016,05,30,18,48,21.70
2016,05,30,18,49,21.60
2016,05,30,18,50,21.60
2016,05,30,18,51,21.60
2016,05,30,18,52,21.60
2016,05,30,18,53,21.60
2016,05,30,18,54,21.60
2016,05,30,18,55,21.60
2016,05,30,18,56,21.60
2016,05,30,18,57,21.60
2016,05,30,18,58,21.60
2016,05,30,18,59,21.60
2016,05,30,19,00,21.50
2016,05,30,19,01,21.50
2016,05,30,19,02,21.40
2016,05,30,19,03,21.40
2016,05,30,19,04,21.30
2016,05,30,19,05,21.30
2016,05,30,19,06,21.20
2016,05,30,19,07,21.20
2016,05,30,19,08,21.10
2016,05,30,19,09,21.00
2016,05,30,19,10,21.00
2016,05,30,19,11,20.90
2016,05,30,19,12,20.80
2016,05,30,19,13,20.80
2016,05,30,19,14,20.70
2016,05,30,19,15,20.70
2016,05,30,19,16,20.70
2016,05,30,19,17,20.70
2016,05,30,19,18,20.70
2016,05,30,19,19,20.70
2016,05,30,19,20,20.70
2016,05,30,19,21,20.70
2016,05,30,19,22,20.70
2016,05,30,19,23,20.70
2016,05,30,19,24,20.70
2016,05,30,19,25,20.70
2016,05,30,19,26,20.70
2016,05,30,19,27,20.70
2016,05,30,19,28,20.70
2016,05,30,19,29,20.60
2016,05,30,19,30,20.50
2016,05,30,19,31,20.50
2016,05,30,19,32,20.40
2016,05,30,19,33,20.30
2016,05,30,19,34,20.20
2016,05,30,19,35,20.10
2016,05,30,19,36,20.00
2016,05,30,19,37,20.00
2016,05,30,19,38,19.90
2016,05,30,19,39,19.90
2016,05,30,19,40,19.80
2016,05,30,19,41,19.80
2016,05,30,19,42,19.70
2016,05,30,19,43,19.70
2016,05,30,19,44,19.70
2016,05,30,19,45,19.60
2016,05,30,19,46,19.60
2016,05,30,19,47,19.60
2016,05,30,19,48,19.50
2016,05,30,19,49,19.40
2016,05,30,19,50,19.40
2016,05,30,19,51,19.30
2016,05,30,19,52,19.30
2016,05,30,19,53,19.30
2016,05,30,19,54,19.20
2016,05,30,19,55,19.20
2016,05,30,19,56,19.20
2016,05,30,19,57,19.20
2016,05,30,19,58,19.20
2016,05,30,19,59,19.10
2016,05,30,20,00,19.10
2016,05,30,20,01,19.10
2016,05,30,20,02,19.10
2016,05,30,20,03,19.00
2016,05,30,20,04,19.00
2016,05,30,20,05,19.00
2016,05,30,20,06,19.00
2016,05,30,20,07,18.90
2016,05,30,20,08,18.90
2016,05,30,20,09,18.90
2016,05,30,20,10,18.90
2016,05,30,20,11,18.90
2016,05,30,20,12,18.90
2016,05,30,20,13,18.80
2016,05,30,20,14,18.80
2016,05,30,20,15,18.80
2016,05,30,20,16,18.70
2016,05,30,20,17,18.70
2016,05,30,20,18,18.70
2016,05,30,20,19,18.60
2016,05,30,20,20,18.60
2016,05,30,20,21,18.60
2016,05,30,20,22,18.60
2016,05,30,20,23,18.50
2016,05,30,20,24,18.50
2016,05,30,20,25,18.50
2016,05,30,20,26,18.40
2016,05,30,20,27,18.40
2016,05,30,20,28,18.40
2016,05,30,20,29,18.40
2016,05,30,20,30,18.40
2016,05,30,20,31,18.40
2016,05,30,20,32,18.50
2016,05,30,20,33,18.40
2016,05,30,20,34,18.40
2016,05,30,20,35,18.40
2016,05,30,20,36,18.40
2016,05,30,20,37,18.40
2016,05,30,20,38,18.40
2016,05,30,20,39,18.40
2016,05,30,20,40,18.40
2016,05,30,20,41,18.40
2016,05,30,20,42,18.40
2016,05,30,20,43,18.40
2016,05,30,20,44,18.40
2016,05,30,20,45,18.40
2016,05,30,20,46,18.40
2016,05,30,20,47,18.30
2016,05,30,20,48,18.30
2016,05,30,20,49,18.30
2016,05,30,20,50,18.30
2016,05,30,20,51,18.30
2016,05,30,20,52,18.30
2016,05,30,20,53,18.30
2016,05,30,20,54,18.20
2016,05,30,20,55,18.20
2016,05,30,20,56,18.20
2016,05,30,20,57,18.20
2016,05,30,20,58,18.10
2016,05,30,20,59,18.00
2016,05,30,21,00,18.00
2016,05,30,21,01,17.90
2016,05,30,21,02,17.90
2016,05,30,21,03,17.80
2016,05,30,21,04,17.80
2016,05,30,21,05,17.80
2016,05,30,21,06,17.70
2016,05,30,21,07,17.60
2016,05,30,21,08,17.60
2016,05,30,21,09,17.50
2016,05,30,21,10,17.50
2016,05,30,21,11,17.40
2016,05,30,21,12,17.40
2016,05,30,21,13,17.30
2016,05,30,21,14,17.20
2016,05,30,21,15,17.20
2016,05,30,21,16,17.10
2016,05,30,21,17,17.10
2016,05,30,21,18,17.00
2016,05,30,21,19,17.00
2016,05,30,21,20,16.90
2016,05,30,21,21,16.90
2016,05,30,21,22,16.80
2016,05,30,21,23,16.70
2016,05,30,21,24,16.70
2016,05,30,21,25,16.60
2016,05,30,21,26,16.50
2016,05,30,21,27,16.40
2016,05,30,21,28,16.30
2016,05,30,21,29,16.30
2016,05,30,21,30,16.20
2016,05,30,21,31,16.10
2016,05,30,21,32,16.10
2016,05,30,21,33,16.10
2016,05,30,21,34,16.00
2016,05,30,21,35,15.90
2016,05,30,21,36,15.90
2016,05,30,21,37,15.90
2016,05,30,21,38,15.80
2016,05,30,21,39,15.80
2016,05,30,21,40,15.70
2016,05,30,21,41,15.70
2016,05,30,21,42,15.60
2016,05,30,21,43,15.50
2016,05,30,21,44,15.40
2016,05,30,21,45,15.40
2016,05,30,21,46,15.30
2016,05,30,21,47,15.20
2016,05,30,21,48,15.20
2016,05,30,21,49,15.10
2016,05,30,21,50,15.00
2016,05,30,21,51,15.00
2016,05,30,21,52,14.90
2016,05,30,21,53,14.90
2016,05,30,21,54,14.80
2016,05,30,21,55,14.80
2016,05,30,21,56,14.80
2016,05,30,21,57,14.70
2016,05,30,21,58,14.70
2016,05,30,21,59,14.70
2016,05,30,22,00,14.60
2016,05,30,22,01,14.60
2016,05,30,22,02,14.50
2016,05,30,22,03,14.50
2016,05,30,22,04,14.50
2016,05,30,22,05,14.40
2016,05,30,22,06,14.40
2016,05,30,22,07,14.40
2016,05,30,22,08,14.40
2016,05,30,22,09,14.30
2016,05,30,22,10,14.30
2016,05,30,22,11,14.30
2016,05,30,22,12,14.30
2016,05,30,22,13,14.30
2016,05,30,22,14,14.20
2016,05,30,22,15,14.20
2016,05,30,22,16,14.10
2016,05,30,22,17,14.10
2016,05,30,22,18,14.10
2016,05,30,22,19,14.10
2016,05,30,22,20,14.00
2016,05,30,22,21,14.00
2016,05,30,22,22,14.00
2016,05,30,22,23,14.00
2016,05,30,22,24,13.90
2016,05,30,22,25,13.90
2016,05,30,22,26,13.90
2016,05,30,22,27,13.80
2016,05,30,22,28,13.80
2016,05,30,22,29,13.80
2016,05,30,22,30,13.80
2016,05,30,22,31,13.70
2016,05,30,22,32,13.70
2016,05,30,22,33,13.70
2016,05,30,22,34,13.70
2016,05,30,22,35,13.70
2016,05,30,22,36,13.70
2016,05,30,22,37,13.60
2016,05,30,22,38,13.60
2016,05,30,22,39,13.50
2016,05,30,22,40,13.50
2016,05,30,22,41,13.50
2016,05,30,22,42,13.50
2016,05,30,22,43,13.50
2016,05,30,22,44,13.40
2016,05,30,22,45,13.40
2016,05,30,22,46,13.40
2016,05,30,22,47,13.40
2016,05,30,22,48,13.40
2016,05,30,22,49,13.30
2016,05,30,22,50,13.30
2016,05,30,22,51,13.30
2016,05,30,22,52,13.30
2016,05,30,22,53,13.30
2016,05,30,22,54,13.30
2016,05,30,22,55,13.30
2016,05,30,22,56,13.30
2016,05,30,22,57,13.30
2016,05,30,22,58,13.30
2016,05,30,22,59,13.30
2016,05,30,23,00,13.30
2016,05,30,23,01,13.30
2016,05,30,23,02,13.30
2016,05,30,23,03,13.30
2016,05,30,23,04,13.30
2016,05,30,23,05,13.30
2016,05,30,23,06,13.30
2016,05,30,23,07,13.30
2016,05,30,23,08,13.20
2016,05,30,23,09,13.20
2016,05,30,23,10,13.20
2016,05,30,23,11,13.20
2016,05,30,23,12,13.20
2016,05,30,23,13,13.20
2016,05,30,23,14,13.20
2016,05,30,23,15,13.20
2016,05,30,23,16,13.20
2016,05,30,23,17,13.10
2016,05,30,23,18,13.10
2016,05,30,23,19,13.10
2016,05,30,23,20,13.10
2016,05,30,23,21,13.10
2016,05,30,23,22,13.10
2016,05,30,23,23,13.10
2016,05,30,23,24,13.10
2016,05,30,23,25,13.10
2016,05,30,23,26,13.00